Location: Hradec Kralove
(50.2170°N, 15.8330°E)
Time: 10:53:26
(UTC+01:00)

Transit 2A Rocket - All Passes

Search period start: 28 January 2023 00:00
Search period end: 07 February 2023 00:00
Orbit: 585 x 914 km, 66.7° (Epoch: 27 January)

Date Brightness Start Highest point End Pass type
(mag) Time Alt. Az. Time Alt. Az. Time Alt. Az.
28 Jan - 00:39:15 10° S 00:43:43 35° ESE 00:48:36 10° NE night (unlit)
28 Jan - 02:21:16 10° WSW 02:26:10 48° NW 02:31:34 10° NNE visible
28 Jan - 04:06:24 10° WNW 04:10:10 19° NNW 04:14:08 10° NNE visible
28 Jan - 05:51:40 10° NNW 05:55:01 16° N 05:58:27 10° NE visible
28 Jan - 07:34:37 10° NNW 07:39:34 28° NNE 07:44:42 10° E daylight
28 Jan - 09:17:00 10° NW 09:22:58 85° NE 09:29:07 10° SE daylight
28 Jan - 11:00:30 10° WNW 11:05:00 22° WSW 11:09:32 10° SSW daylight
28 Jan - 23:57:15 10° SSE 00:00:59 22° ESE 00:05:01 10° ENE night (unlit)
29 Jan - 01:37:57 10° SW 01:42:57 71° NW 01:48:31 10° NE visible
29 Jan - 03:22:25 10° WNW 03:26:34 23° NNW 03:31:02 10° NNE visible
29 Jan - 05:08:05 10° NW 05:11:18 15° N 05:14:36 10° NE visible
29 Jan - 06:51:35 10° NNW 06:56:03 22° NNE 07:00:40 10° ENE visible
29 Jan - 08:33:57 10° NNW 08:39:49 60° NE 08:45:52 10° SE daylight
29 Jan - 10:16:53 10° NW 10:22:14 34° WSW 10:27:39 10° S daylight
29 Jan - 23:16:09 10° SE 23:18:24 13° ESE 23:20:44 10° ENE night (unlit)
30 Jan - 00:54:55 10° SSW 00:59:53 76° ESE 01:05:25 10° NE night (unlit)
30 Jan - 02:38:33 10° W 02:43:04 29° NNW 02:47:59 10° NNE visible
30 Jan - 04:24:16 10° NW 04:27:34 16° N 04:31:01 10° NNE visible
30 Jan - 06:08:27 10° NNW 06:12:27 19° NNE 06:16:33 10° ENE visible
30 Jan - 07:50:57 10° NNW 07:56:33 43° NE 08:02:21 10° ESE daylight
30 Jan - 09:33:34 10° NW 09:39:22 52° WSW 09:45:15 10° SSE daylight
31 Jan - 00:12:12 10° S 00:16:57 47° ESE 00:22:11 10° NE night (unlit)
31 Jan - 01:54:51 10° WSW 01:59:41 39° NW 02:04:58 10° NNE visible
31 Jan - 03:40:17 10° NW 03:43:53 17° NNW 03:47:39 10° NNE visible
31 Jan - 05:25:13 10° NNW 05:28:46 16° N 05:32:27 10° NE visible
31 Jan - 07:07:56 10° NNW 07:13:11 32° NE 07:18:36 10° E daylight
31 Jan - 08:50:23 10° NW 08:56:22 78° WSW 09:02:29 10° SSE daylight
31 Jan - 10:34:26 10° WNW 10:38:09 17° WSW 10:41:54 10° SW daylight
31 Jan - 23:29:53 10° S 23:34:08 29° ESE 23:38:47 10° NE night (unlit)
01 Feb - 01:11:23 10° SW 01:16:23 56° NW 01:21:56 10° NNE visible
01 Feb - 02:56:16 10° WNW 03:00:15 20° NNW 03:04:28 10° NNE visible
01 Feb - 04:41:46 10° NNW 04:45:03 15° N 04:48:28 10° NE visible
01 Feb - 06:24:55 10° NNW 06:29:43 25° NNE 06:34:40 10° E visible
01 Feb - 08:07:18 10° NW 08:13:17 74° NE 08:19:24 10° SE daylight
01 Feb - 09:50:33 10° NW 09:55:27 27° WSW 10:00:25 10° SSW daylight
01 Feb - 22:48:08 10° SSE 22:51:28 18° ESE 22:55:00 10° ENE night (unlit)
02 Feb - 00:28:11 10° SW 00:33:14 84° NW 00:38:50 10° NE night (unlit)
02 Feb - 02:12:19 10° W 02:16:41 25° NNW 02:21:23 10° NNE visible
02 Feb - 03:58:03 10° NW 04:01:20 15° N 04:04:42 10° NNE visible
02 Feb - 05:41:51 10° NNW 05:46:09 21° NNE 05:50:36 10° ENE visible
02 Feb - 07:24:15 10° NNW 07:30:04 52° NE 07:36:02 10° ESE daylight
02 Feb - 09:07:05 10° NW 09:12:39 41° WSW 09:18:17 10° S daylight
02 Feb - 22:08:07 10° ESE 22:08:54 10° E 22:09:43 10° E night (unlit)
02 Feb - 23:45:16 10° SSW 23:50:12 63° ESE 23:55:42 10° NE night (unlit)
03 Feb - 01:28:31 10° W 01:33:13 33° NW 01:38:21 10° NNE visible
03 Feb - 03:14:09 10° NW 03:17:36 16° N 03:21:12 10° NNE visible
03 Feb - 04:58:40 10° NNW 05:02:30 18° NNE 05:06:28 10° ENE visible
03 Feb - 06:41:16 10° NNW 06:46:45 38° NE 06:52:26 10° ESE visible
03 Feb - 08:23:48 10° NW 08:29:43 62° WSW 08:35:44 10° SSE daylight
03 Feb - 10:08:49 10° WNW 10:11:15 13° WSW 10:13:43 10° SW daylight
03 Feb - 23:02:42 10° S 23:07:19 39° ESE 23:12:24 10° NE night (unlit)
04 Feb - 00:44:55 10° WSW 00:49:52 45° NW 00:55:18 10° NNE visible
04 Feb - 02:30:08 10° WNW 02:33:56 19° NNW 02:37:55 10° NNE visible
04 Feb - 04:15:20 10° NNW 04:18:48 16° N 04:22:23 10° NE visible
04 Feb - 05:58:15 10° NNW 06:03:20 29° NNE 06:08:35 10° E visible
04 Feb - 07:40:40 10° NW 07:46:41 90° WSW 07:52:49 10° SE daylight
04 Feb - 09:24:19 10° WNW 09:28:38 21° WSW 09:32:58 10° SSW daylight
04 Feb - 22:20:34 10° SSE 22:24:34 24° ESE 22:28:53 10° ENE night (unlit)
05 Feb - 00:01:32 10° SW 00:06:37 67° NW 00:12:15 10° NE night (unlit)
05 Feb - 01:46:08 10° WNW 01:50:19 22° NNW 01:54:46 10° NNE visible
05 Feb - 03:31:46 10° NW 03:35:05 15° N 03:38:29 10° NE visible
05 Feb - 05:15:11 10° NNW 05:19:49 23° NNE 05:24:35 10° ENE visible
05 Feb - 06:57:35 10° NNW 07:03:32 64° NE 07:09:37 10° SE daylight
05 Feb - 08:40:38 10° NW 08:45:53 32° WSW 08:51:10 10° S daylight
05 Feb - 21:39:10 10° SE 21:41:56 15° ESE 21:44:50 10° ENE night (unlit)
05 Feb - 23:18:26 10° SSW 23:23:30 82° SE 23:29:08 10° NE night (unlit)
06 Feb - 01:02:13 10° W 01:06:47 28° NNW 01:11:42 10° NNE visible
06 Feb - 02:47:59 10° NW 02:51:21 16° N 02:54:50 10° NNE visible
06 Feb - 04:32:04 10° NNW 04:36:13 19° NNE 04:40:29 10° ENE visible
06 Feb - 06:14:33 10° NNW 06:20:17 46° NE 06:26:09 10° ESE visible
06 Feb - 07:57:15 10° NW 08:03:01 48° WSW 08:08:51 10° S daylight
06 Feb - 22:35:39 10° SSW 22:40:32 52° ESE 22:45:56 10° NE night (unlit)
